LiveATC.Net - Listen to live air traffic control over the Internet!


ICAO: KDVO  IATA: DVO   Airport: Gnoss Field Airport
City: Novato   State/Province: California
Country: United States   Continent: North America
KDVO METAR Weather: KDVO 241755Z AUTO 00000KT 9SM CLR 09/07 A3020 RMK AO2
KDVO Flight Activity (FlightAware)
KDVO Webcam:  (Airport Webcams) 
KDVO Airport Info   (iFlightPlanner)
KDVO VFR Sectional Chart   (iFlightPlanner) 
KDVO IFR Low Altitude Chart   (iFlightPlanner) 
KDVO IFR High Altitude Chart   (iFlightPlanner) 

KDVO CTAF
Feed Status: DOWN
Last heard on: 2022-01-23 09:48:05 (1 days 8 hours 21 minutes ago)
Archive Access: KDVO CTAF
FacilityFrequency
Novato CTAF123.075

NOTICE

Unauthorized use prohibited. See LiveATC.net Terms of Service


Airport/ARTCC Code
Frequency Search
(e.g., 124.400, 128.75)
Site-wide search
 


Browse Feeds
Top 50 Feeds
HF Oceanic Feeds
Coverage Map
Bad Weather Areas

LiveATC FAQ
Offer LiveATC feed
Contact LiveATC.net
Press Inquiries

LiveATC on iPhone
LiveATC on Android

LiveATC Mobile
(Mobile browser)

ATC Audio Archives
Interesting Recordings

LiveATC Forums


Home Page
About LiveATC.net
Make a Donation
Terms of Use
Privacy Policy

Canadian Air Freqs

AIRMETs/SIGMETs

FAA Airport Status
NAS Status
Arrival Demand


Server Software By:
Icecast.org
Liquidsoap